FW7989 Weather Reports


time (UTC)temp
F
wind
direction
speed
knots
gust
knots
rain 1hr
in
rain 24hr
in
rain mn
in
humidity
%
barometer
mb
20260831022601 58 220 2.6 6.1 0.29 0.50 0.39 90 1006.5
20260831022058 58 274 1.7 6.1 0.20 0.40 0.29 89 1006.4
20260831021601 58 286 2.6 15.6 0.14 0.34 0.23 88 1006.5
20260831021059 58 239 2.6 15.6 0.08 0.24 0.13 88 1006.4
20260831020602 58 191 9.6 15.6 0.09 0.23 0.12 88 1006.2
20260831020114 58 204 6.1 10.4 0.08 0.22 0.11 88 1006.0
20260831015557 58 195 6.1 14.8 0.08 0.21 0.10 88 1006.1
20260831015058 58 225 6.1 14.8 0.09 0.21 0.10 87 1005.9
20260831014605 58 213 5.2 12.2 0.10 0.21 0.10 87 1005.8
20260831014058 58 193 4.3 7.8 0.10 0.21 0.10 86 1005.7
20260831013558 58 186 3.5 7.0 0.10 0.21 0.10 87 1005.9
20260831013102 58 217 3.5 6.1 0.10 0.21 0.10 87 1006.0
20260831012558 58 218 2.6 10.4 0.09 0.20 0.09 87 1006.0
20260831012057 58 219 2.6 10.4 0.09 0.20 0.09 87 1006.0
20260831011605 58 209 2.6 8.7 0.07 0.18 0.07 86 1006.0
20260831011057 59 223 4.3 8.7 0.04 0.15 0.04 86 1006.1
20260831010558 59 224 2.6 9.6 0.03 0.14 0.03 85 1006.1
20260831010107 59 233 3.5 9.6 0.02 0.13 0.02 85 1005.9
20260831005558 59 227 3.5 9.6 0.01 0.12 0.01 84 1005.9
20260831005102 59 207 3.5 8.7 0.00 0.11 0.00 84 1005.9
20260831004606 59 227 4.3 8.7 0.00 0.11 0.00 84 1005.8
20260831004101 60 237 3.5 10.4 0.00 0.11 0.00 83 1005.8
20260831003559 60 246 4.3 11.3 0.00 0.11 0.00 83 1005.8
20260831003108 60 236 6.1 11.3 0.00 0.11 0.00 83 1005.6
20260831002557 60 272 4.3 10.4 0.00 0.11 0.00 84 1005.6
20260831002057 60 248 5.2 10.4 0.00 0.11 0.00 84 1005.7
20260831001611 60 273 5.2 13.9 0.00 0.11 0.00 84 1005.7
20260831001058 60 234 3.5 13.9 0.00 0.11 0.00 84 1005.6
20260831000558 60 215 7.8 13.9 0.00 0.11 0.00 84 1005.6
20260831000109 60 265 7.0 13.9 0.00 0.11 0.00 84 1005.5
20260830235559 59 234 7.0 13.9 0.00 0.11 0.00 84 1005.4
20260830235057 59 222 5.2 11.3 0.00 0.11 0.00 84 1005.4
20260830234608 59 244 5.2 13.0 0.00 0.11 0.00 83 1005.2
20260830234100 59 229 4.3 13.0 0.00 0.11 0.00 84 1005.1
20260830233559 59 275 4.3 12.2 0.00 0.11 0.00 84 1005.1
20260830233113 59 242 3.5 7.8 0.00 0.11 0.00 84 1005.0
20260830232601 59 242 3.5 8.7 0.00 0.11 0.00 83 1004.8
20260830232058 59 210 3.5 9.6 0.00 0.11 0.00 84 1004.7
20260830231607 59 208 5.2 9.6 0.00 0.11 0.00 84 1004.8
20260830231057 59 232 4.3 9.6 0.00 0.11 0.00 86 1004.9
20260830230558 59 216 4.3 9.6 0.00 0.11 0.00 86 1004.8
20260830230106 59 220 2.6 7.8 0.00 0.11 0.00 86 1004.6
20260830225558 60 233 4.3 15.6 0.00 0.11 0.11 86 1004.6
20260830225058 60 207 4.3 15.6 0.00 0.11 0.11 86 1004.7
20260830224600 60 217 7.8 15.6 0.00 0.11 0.11 85 1004.6
20260830224058 60 220 5.2 10.4 0.00 0.11 0.11 86 1004.5
20260830223602 61 225 6.1 10.4 0.00 0.11 0.11 86 1004.6
20260830223104 61 207 3.5 9.6 0.00 0.11 0.11 86 1004.5
20260830222558 61 217 3.5 9.6 0.00 0.10 0.10 87 1004.6
20260830222058 61 218 6.1 9.6 0.01 0.10 0.10 87 1004.7
20260830221611 60 235 4.3 7.0 0.02 0.10 0.10 88 1004.9
20260830221102 60 221 2.6 3.5 0.02 0.10 0.10 88 1004.9
20260830220558 60 191 0.9 5.2 0.04 0.10 0.10 87 1004.8
20260830215558 61 203 3.5 10.4 0.04 0.10 0.10 87 1004.9
20260830215059 61 202 6.1 10.4 0.04 0.10 0.10 87 1004.8
20260830214629 61 224 3.5 8.7 0.04 0.10 0.10 87 1004.7
20260830214058 61 167 5.2 10.4 0.04 0.10 0.10 87 1004.7
20260830213558 61 214 5.2 10.4 0.04 0.10 0.10 87 1004.7
20260830213105 61 158 4.3 10.4 0.04 0.10 0.10 88 1004.6
20260830212558 61 188 5.2 10.4 0.03 0.09 0.09 88 1004.6
20260830212059 61 140 4.3 8.7 0.03 0.08 0.08 88 1004.5
20260830211602 61 211 0.9 6.1 0.02 0.07 0.07 87 1004.5
20260830211057 61 209 3.5 7.8 0.02 0.07 0.07 87 1004.5
20260830210557 61 149 1.7 7.8 0.00 0.05 0.05 86 1004.5
20260830210110 61 120 2.6 7.0 0.00 0.05 0.05 86 1004.5
20260830205603 61 121 2.6 7.0 0.00 0.05 0.05 85 1004.5
20260830205059 61 131 1.7 7.0 0.00 0.05 0.05 85 1004.7
20260830204605 61 159 2.6 7.8 0.00 0.05 0.05 85 1004.8
20260830204103 61 128 2.6 7.8 0.00 0.05 0.05 85 1004.6
20260830203603 61 150 2.6 7.0 0.00 0.05 0.05 85 1004.8
20260830203102 61 92 2.6 7.8 0.00 0.05 0.05 85 1004.8
20260830202604 61 140 2.6 7.8 0.00 0.05 0.05 85 1005.0
20260830202057 61 112 3.5 7.8 0.00 0.05 0.05 85 1005.1
20260830201612 61 144 1.7 7.0 0.00 0.05 0.05 84 1005.0
20260830201056 62 119 2.6 9.6 0.00 0.05 0.05 84 1005.0
20260830200556 62 150 4.3 9.6 0.00 0.05 0.05 84 1005.2
20260830200113 62 131 1.7 6.1 0.00 0.05 0.05 84 1005.2
20260830195556 62 111 1.7 5.2 0.00 0.06 0.05 84 1005.1
20260830195056 62 166 0.9 10.4 0.00 0.06 0.05 84 1005.3
20260830194607 62 188 2.6 10.4 0.00 0.06 0.05 84 1005.3
20260830194102 62 182 3.5 6.1 0.00 0.06 0.05 85 1005.3
20260830193601 62 171 2.6 8.7 0.00 0.06 0.05 85 1005.3
20260830193131 62 196 2.6 8.7 0.00 0.06 0.05 85 1005.3
20260830192600 62 202 4.3 8.7 0.00 0.06 0.05 85 1005.1
20260830192100 62 202 3.5 7.8 0.00 0.06 0.05 85 1005.2
20260830191626 62 194 3.5 8.7 0.00 0.06 0.05 85 1005.3
20260830191103 62 202 4.3 10.4 0.00 0.06 0.05 85 1005.2
20260830190601 62 200 4.3 10.4 0.00 0.06 0.05 85 1005.3
20260830190110 62 180 4.3 11.3 0.00 0.06 0.05 86 1005.2
20260830185600 63 205 6.1 11.3 0.00 0.07 0.05 86 1005.3
20260830185100 63 212 6.1 11.3 0.00 0.07 0.05 86 1005.1
20260830184606 63 216 5.2 9.6 0.00 0.07 0.05 86 1005.1
20260830184100 63 221 5.2 11.3 0.00 0.07 0.05 86 1005.1
20260830183601 63 196 5.2 11.3 0.00 0.07 0.05 86 1005.1
20260830183108 63 165 6.1 9.6 0.00 0.07 0.05 86 1005.1
20260830182601 63 204 4.3 10.4 0.01 0.07 0.05 86 1005.1
20260830182101 63 184 6.1 13.9 0.01 0.07 0.05 86 1004.9
20260830181610 63 191 5.2 16.5 0.02 0.07 0.05 85 1005.1
20260830181102 63 202 7.0 16.5 0.02 0.07 0.05 85 1005.1
20260830180603 64 206 4.3 11.3 0.02 0.07 0.05 86 1005.1
20260830180107 64 196 4.3 10.4 0.03 0.07 0.05 86 1005.0
20260830175600 63 149 2.6 9.6 0.02 0.06 0.04 87 1005.0
20260830175100 63 167 2.6 8.7 0.02 0.06 0.04 87 1005.2
20260830174618 64 167 2.6 7.8 0.03 0.06 0.04 87 1005.2
20260830174100 64 166 1.7 9.6 0.04 0.06 0.04 87 1005.4
20260830173602 64 188 2.6 9.6 0.04 0.06 0.04 87 1005.4
20260830173116 63 198 4.3 9.6 0.04 0.06 0.04 87 1005.6
20260830172600 63 178 3.5 7.0 0.03 0.05 0.03 86 1005.7
20260830172100 63 193 4.3 9.6 0.03 0.05 0.03 86 1005.8
20260830171605 63 196 4.3 10.4 0.03 0.04 0.03 86 1005.7
20260830171100 63 200 4.3 10.4 0.03 0.04 0.03 85 1005.7
20260830170600 64 182 4.3 10.4 0.03 0.04 0.03 85 1005.9
20260830170105 64 254 4.3 14.8 0.02 0.03 0.02 83 1005.8
20260830165559 64 196 8.7 14.8 0.02 0.08 0.02 82 1005.8
20260830165059 64 208 7.8 19.1 0.02 0.08 0.02 81 1005.8
20260830164605 65 193 7.0 20.9 0.00 0.07 0.00 80 1005.8
20260830164100 66 169 8.7 20.9 0.00 0.06 0.00 77 1005.8
20260830163600 67 167 7.8 23.5 0.00 0.06 0.00 75 1005.9
20260830163102 67 196 10.4 23.5 0.00 0.06 0.00 75 1005.7
20260830162559 67 185 7.8 20.9 0.00 0.06 0.00 77 1005.6
20260830162059 67 233 8.7 20.9 0.00 0.06 0.00 78 1005.9
20260830161602 67 157 6.1 14.8 0.00 0.06 0.00 78 1006.0
20260830161059 67 165 7.0 13.9 0.00 0.06 0.00 77 1006.0
20260830160559 67 224 7.0 13.0 0.00 0.06 0.00 78 1006.1
20260830160107 67 215 7.0 15.6 0.00 0.06 0.00 77 1006.2
20260830155600 67 207 6.1 15.6 0.00 0.06 0.00 76 1006.1
20260830155103 67 175 6.1 15.6 0.00 0.06 0.00 76 1006.0
20260830154607 68 204 7.8 15.6 0.00 0.06 0.00 76 1005.9
20260830154100 68 177 6.1 12.2 0.00 0.06 0.00 76 1005.9
20260830153600 68 203 5.2 13.0 0.00 0.06 0.00 76 1006.1
20260830153110 68 161 6.1 13.0 0.00 0.06 0.00 75 1006.1
20260830152559 68 234 5.2 11.3 0.00 0.06 0.00 75 1006.1
20260830152059 68 199 5.2 11.3 0.00 0.06 0.00 75 1006.1
20260830151602 68 209 5.2 10.4 0.00 0.06 0.00 75 1006.0
20260830151100 68 172 4.3 13.0 0.00 0.06 0.00 75 1006.0
20260830150601 68 192 4.3 13.9 0.00 0.06 0.00 75 1005.8
20260830150108 68 153 7.8 14.8 0.00 0.06 0.00 74 1005.7
20260830145600 68 165 7.0 18.2 0.00 0.06 0.00 74 1006.1
20260830145100 68 220 7.0 18.2 0.00 0.06 0.00 73 1006.3
20260830144610 68 188 7.0 18.2 0.00 0.06 0.00 73 1006.4
20260830144059 68 197 8.7 18.2 0.00 0.06 0.00 72 1006.5
20260830143603 69 182 7.8 14.8 0.00 0.06 0.00 72 1006.5
20260830143104 69 180 7.8 13.9 0.00 0.06 0.00 73 1006.9
20260830142600 69 190 7.0 19.1 0.00 0.06 0.00 73 1007.0
20260830142100 68 207 7.8 19.1 0.00 0.06 0.00 72 1007.1
20260830141603 68 191 8.7 19.1 0.00 0.06 0.00 72 1007.3
20260830141100 68 182 7.0 19.1 0.00 0.06 0.00 73 1007.2
20260830140559 68 202 6.1 19.1 0.00 0.06 0.00 74 1007.2
20260830140110 69 205 8.7 19.1 0.00 0.06 0.00 72 1007.1
20260830135602 70 209 7.8 20.0 0.00 0.06 0.00 68 1007.2
20260830135100 70 221 9.6 20.0 0.00 0.06 0.00 69 1007.0
20260830134614 71 203 9.6 20.0 0.00 0.06 0.00 68 1007.1
20260830134105 71 220 9.6 20.0 0.00 0.06 0.00 67 1007.1
20260830133600 71 192 10.4 20.9 0.00 0.06 0.00 67 1007.2
20260830133111 71 192 7.8 20.9 0.00 0.06 0.00 68 1007.2
20260830132559 71 177 8.7 19.1 0.00 0.06 0.00 67 1007.1
20260830132059 72 182 5.2 15.6 0.00 0.06 0.00 67 1007.1
20260830131606 72 192 7.0 15.6 0.00 0.06 0.00 67 1006.9
20260830131100 73 209 6.1 14.8 0.00 0.06 0.00 66 1006.9
20260830130600 74 189 7.8 15.6 0.00 0.06 0.00 64 1007.0
20260830130111 73 205 8.7 20.9 0.00 0.06 0.00 67 1007.0
20260830125600 73 184 6.1 20.9 0.00 0.35 0.00 71 1007.1
20260830125059 72 168 6.1 13.9 0.00 0.35 0.00 66 1007.3
20260830124604 72 171 6.1 14.8 0.00 0.35 0.00 69 1007.4
20260830124059 72 208 7.0 14.8 0.00 0.35 0.00 64 1007.5
20260830123600 72 211 5.2 13.0 0.00 0.35 0.00 65 1007.4
20260830123109 72 206 3.5 9.6 0.00 0.35 0.00 70 1007.5
20260830122559 71 217 4.3 9.6 0.00 0.35 0.00 70 1007.6
20260830122100 70 215 5.2 11.3 0.00 0.35 0.00 71 1007.6
20260830121609 69 217 3.5 11.3 0.00 0.35 0.00 75 1007.7
20260830121059 68 219 4.3 10.4 0.00 0.35 0.00 75 1007.8
20260830120601 68 199 4.3 10.4 0.00 0.35 0.00 75 1007.7
20260830120110 68 204 3.5 10.4 0.00 0.35 0.00 77 1007.7
20260830115559 68 212 4.3 9.6 0.00 0.37 0.00 78 1007.8
20260830115059 67 196 5.2 11.3 0.00 0.37 0.00 77 1007.9
20260830114613 67 216 5.2 11.3 0.00 0.37 0.00 77 1007.8
20260830114058 67 222 5.2 11.3 0.00 0.37 0.00 75 1007.9
20260830113557 68 200 4.3 9.6 0.00 0.37 0.00 75 1007.8
20260830113116 68 185 3.5 9.6 0.00 0.37 0.00 76 1007.8
20260830112557 68 173 4.3 9.6 0.00 0.37 0.00 75 1007.8
20260830112057 68 162 3.5 7.8 0.00 0.37 0.00 74 1007.9
20260830111606 68 194 4.3 10.4 0.00 0.37 0.00 74 1008.0
20260830111101 69 181 4.3 10.4 0.00 0.37 0.00 73 1008.0
20260830110557 69 194 4.3 9.6 0.00 0.37 0.00 74 1008.0
20260830110106 69 166 3.5 10.4 0.00 0.37 0.00 75 1008.0
20260830105559 70 162 6.1 15.6 0.00 0.68 0.00 73 1008.1
20260830105057 70 205 7.0 15.6 0.00 0.68 0.00 73 1008.2
20260830104612 69 200 4.3 9.6 0.00 0.68 0.00 72 1008.3
20260830104058 69 195 4.3 8.7 0.00 0.68 0.00 73 1008.4
20260830103558 68 161 4.3 8.7 0.00 0.68 0.00 74 1008.5
20260830103120 68 207 1.7 7.0 0.00 0.68 0.00 78 1008.7
20260830102557 68 152 2.6 7.0 0.00 0.68 0.00 79 1008.8
20260830102057 68 208 3.5 7.0 0.00 0.68 0.00 78 1008.8
20260830101602 68 190 2.6 7.0 0.00 0.68 0.00 81 1008.9
20260830101057 67 204 2.6 7.0 0.00 0.68 0.00 82 1009.0
20260830100619 66 193 2.6 7.0 0.00 0.68 0.00 83 1009.0
20260830100110 66 232 1.7 7.0 0.00 0.68 0.00 83 1009.1
20260830095600 65 181 3.5 6.1 0.00 0.68 0.00 84 1009.1
20260830095058 64 169 3.5 9.6 0.00 0.68 0.00 86 1009.3
20260830094601 64 171 1.7 11.3 0.00 0.68 0.00 85 1009.4
20260830094059 64 189 6.1 13.0 0.00 0.68 0.00 83 1009.4
20260830093559 65 223 7.0 13.0 0.00 0.68 0.00 81 1009.5
20260830093107 66 194 7.0 11.3 0.00 0.68 0.00 79 1009.5
20260830092600 67 199 5.2 12.2 0.00 0.68 0.00 80 1009.4
20260830092058 67 225 5.2 13.0 0.00 0.68 0.00 79 1009.4
20260830091610 67 219 6.1 13.0 0.00 0.68 0.00 78 1009.3
20260830091057 67 190 6.1 13.0 0.00 0.68 0.00 80 1009.3
20260830090558 67 232 3.5 9.6 0.00 0.68 0.00 79 1009.3
20260830090105 67 200 2.6 7.0 0.00 0.68 0.00 82 1009.4
20260830085559 67 206 4.3 7.0 0.00 0.68 0.00 81 1009.3
20260830085058 66 187 3.5 8.7 0.00 0.68 0.00 82 1009.4
20260830084610 66 194 4.3 11.3 0.00 0.68 0.00 81 1009.4
20260830084057 66 171 5.2 11.3 0.00 0.68 0.00 80 1009.4
20260830083557 67 192 4.3 10.4 0.00 0.68 0.00 80 1009.3
20260830083109 67 205 3.5 9.6 0.00 0.68 0.00 81 1009.4
20260830082558 66 183 4.3 10.4 0.00 0.68 0.00 81 1009.5
20260830082103 66 196 6.1 11.3 0.00 0.68 0.00 81 1009.4
20260830081601 65 176 5.2 11.3 0.00 0.68 0.00 82 1009.3
20260830081059 65 178 2.6 9.6 0.00 0.68 0.00 83 1009.2
20260830080559 65 145 2.6 9.6 0.00 0.68 0.00 82 1009.1
20260830080123 65 148 3.5 7.8 0.00 0.68 0.00 81 1009.1
20260830075600 65 146 3.5 8.7 0.00 0.70 0.00 83 1009.3
20260830075100 64 206 3.5 8.7 0.00 0.70 0.00 83 1009.3
20260830074608 64 197 4.3 7.0 0.00 0.70 0.00 83 1009.4
20260830074102 64 207 3.5 6.1 0.00 0.70 0.00 83 1009.3
20260830073604 64 189 1.7 7.8 0.00 0.70 0.00 83 1009.3
20260830073108 64 0 3.5 7.8 0.00 0.70 0.00 83 1009.4
20260830072600 64 200 4.3 7.0 0.00 0.70 0.00 83 1009.5
20260830072059 63 194 3.5 7.0 0.00 0.70 0.00 85 1009.4
20260830071622 63 186 1.7 6.1 0.00 0.70 0.00 85 1009.4
20260830071101 62 190 0.9 4.3 0.00 0.70 0.00 85 1009.4
20260830070602 62 178 1.7 4.3 0.00 0.70 0.00 85 1009.5
20260830070109 62 179 1.7 3.5 0.00 0.70 0.00 85 1009.5
20260830065600 62 197 0.9 3.5 0.00 0.81 0.00 86 1009.3
20260830065059 62 128 0.9 3.5 0.00 0.81 0.00 86 1009.4
20260830064603 62 167 0.0 5.2 0.00 0.81 0.00 86 1009.3
20260830064059 61 198 1.7 5.2 0.00 0.81 0.00 86 1009.1
20260830063600 61 167 1.7 7.8 0.00 0.81 0.00 86 1009.1
20260830063109 61 195 3.5 7.8 0.00 0.81 0.00 87 1009.1
20260830062603 61 200 2.6 6.1 0.00 0.81 0.00 87 1009.2
20260830062059 61 212 1.7 7.0 0.00 0.81 0.00 87 1009.2
20260830061606 61 191 3.5 7.0 0.00 0.81 0.00 88 1009.2
20260830061059 60 198 3.5 5.2 0.00 0.81 0.00 90 1009.2
20260830060559 60 198 1.7 5.2 0.00 0.81 0.00 90 1009.0
20260830060113 59 135 1.7 5.2 0.00 0.81 0.00 90 1009.0
20260830055558 59 151 1.7 5.2 0.00 0.90 0.00 89 1009.0
20260830055100 59 0 0.9 2.6 0.00 0.90 0.00 89 1009.0
20260830054601 59 166 0.9 3.5 0.00 0.90 0.00 89 1009.0
20260830054059 59 0 0.9 3.5 0.00 0.90 0.00 89 1008.9
20260830053559 59 167 0.9 4.3 0.00 0.90 0.00 89 1009.0
20260830053107 59 177 1.7 5.2 0.00 0.90 0.00 89 1009.0
20260830052559 59 160 1.7 5.2 0.00 0.90 0.00 88 1009.0
20260830052059 60 119 1.7 5.2 0.00 0.90 0.00 88 1008.9
20260830051602 60 95 1.7 5.2 0.00 0.90 0.00 88 1009.0
20260830051058 60 106 0.9 4.3 0.00 0.90 0.00 88 1009.0
20260830050602 60 119 0.9 3.5 0.00 0.90 0.00 88 1009.0
20260830050107 59 91 1.7 3.5 0.00 0.90 0.00 88 1009.0
20260830045557 59 100 0.9 3.5 0.00 0.92 0.00 89 1009.0
20260830045059 59 100 0.9 3.5 0.00 0.92 0.00 89 1008.9
20260830044644 59 125 0.9 3.5 0.00 0.92 0.00 89 1008.9
20260830044058 59 121 0.9 2.6 0.00 0.92 0.00 88 1009.0
20260830043604 59 135 0.9 3.5 0.00 0.92 0.00 88 1009.0
20260830043107 59 167 0.9 3.5 0.00 0.92 0.00 88 1009.0
20260830042558 59 192 0.9 4.3 0.00 0.92 0.00 87 1009.1
20260830042057 59 203 0.9 4.3 0.00 0.92 0.00 86 1009.0
20260830041609 59 205 1.7 3.5 0.00 0.92 0.00 87 1009.0
20260830041101 59 192 1.7 5.2 0.00 0.92 0.00 86 1008.9
20260830040558 60 217 0.9 5.2 0.00 0.92 0.00 86 1009.0
20260830040114 60 200 2.6 5.2 0.00 0.92 0.00 86 1008.9
20260830035558 60 205 1.7 4.3 0.00 0.92 0.00 85 1009.0
20260830035058 60 208 1.7 4.3 0.00 0.92 0.00 85 1008.9
20260830034606 61 220 1.7 6.1 0.00 0.92 0.00 84 1008.9
20260830034057 61 198 2.6 8.7 0.00 0.92 0.00 85 1009.0
20260830033557 61 227 3.5 8.7 0.00 0.92 0.00 84 1009.1
20260830033108 61 244 5.2 10.4 0.00 0.92 0.00 84 1009.0
20260830032557 62 246 4.3 10.4 0.00 0.92 0.00 84 1008.9
20260830032057 62 237 3.5 9.6 0.00 0.92 0.00 85 1009.0
20260830031626 61 246 4.3 9.6 0.00 0.92 0.00 85 1009.0
20260830031058 61 242 5.2 10.4 0.00 0.92 0.00 85 1008.9
20260830030559 61 236 6.1 10.4 0.00 0.92 0.00 85 1009.1
20260830025558 61 234 4.3 8.7 0.00 0.92 0.00 85 1009.0
20260830025057 61 228 4.3 8.7 0.00 0.92 0.00 86 1008.9
20260830024640 61 278 4.3 8.7 0.00 0.92 0.00 86 1008.9
20260830024057 61 242 2.6 7.8 0.00 0.92 0.00 85 1008.9
20260830023557 61 235 3.5 7.8 0.00 0.92 0.00 86 1008.9
20260830023107 61 234 2.6 6.1 0.00 0.92 0.00 85 1008.8